Flag for Germany Weather past 2 weeks in Lippstadt, North Rhine-Westphalia, Germany

Now
48 °F

Passing clouds.


Feels Like: 43 °F
Forecast: 43 / 53 °F
Wind: 12 mph from Southwest

Location: Paderborn / Lippstadt

Current Time: Dec 18, 2014 at 5:46:45 AM

Latest Report: Dec 18, 2014 at 4:20 AM


Visibility: N/A

Pressure: 29.80 "Hg

Humidity: 94%

Dew point: 46 °F

Location of LippstadtLocation

Historic Weather in Lippstadt — Graph

°F

Lippstadt temperature yesterday

Maximum temperature yesterday: 46 °F (at 7:20 PM)
Minimum temperature yesterday: 34 °F (at 1:20 AM)
Average temperature yesterday: 40 °F

Past Weeks' High & Low Weather Summary

 TemperatureHumidityPressure
High48 °F (Dec 18, 12:50 AM)100% (Dec 3, 4:20 AM)30.36 "Hg (Dec 3, 4:20 AM)
Low27 °F (Dec 3, 8:50 AM)56% (Dec 10, 5:20 AM)29.39 "Hg (Dec 12, 2:50 PM)
Average37 °F87%29.95 "Hg
* Reported Dec 3 4:20 AM — Dec 18 4:20 AM, Lippstadt, Weather by CustomWeather, © 2014

Note: Actual official high and low records may vary slightly from our data, if they occured in-between our weather recording intervals... More about our weather records

Advertising

Lippstadt weather history for previous 24 hours

 ConditionsComfort  
Time TempWeatherWind HumidityBarometerVisibility
4:20 AM
Dec 18
48 °FPassing clouds.12 mph94%29.80 "HgN/A
3:50 AM48 °FPassing clouds.14 mph94%29.80 "Hg5 mi
3:20 AM48 °FPassing clouds.13 mph94%29.80 "Hg5 mi
2:50 AM46 °FPassing clouds.9 mph100%29.80 "Hg6 mi
2:20 AM46 °FPassing clouds.9 mph100%29.80 "Hg6 mi
1:20 AM46 °FPartly cloudy.10 mph100%29.80 "Hg6 mi
12:50 AM48 °FPassing clouds.12 mph94%29.80 "Hg6 mi
12:20 AM46 °FPassing clouds.12 mph100%29.80 "Hg5 mi
11:50 PM
Dec 17
46 °FLight rain. Passing clouds.9 mph100%29.77 "Hg5 mi
11:20 PM46 °FLight rain. Low clouds.10 mph100%29.77 "Hg4 mi
10:50 PM46 °FLight rain. Low clouds.9 mph100%29.77 "Hg4 mi
10:20 PM46 °FLight rain. Low clouds.9 mph100%29.77 "Hg4 mi
9:50 PM46 °FLight rain. Fog.9 mph100%29.74 "Hg3 mi
9:20 PM46 °FLight rain. Low clouds.12 mph100%29.74 "Hg4 mi
8:50 PM46 °FLight rain. Low clouds.12 mph100%29.71 "Hg5 mi
8:20 PM46 °FLight rain. Passing clouds.9 mph100%29.71 "HgN/A
7:50 PM46 °FLight rain. Passing clouds.13 mph93%29.68 "HgN/A
7:20 PM46 °FLight rain. Passing clouds.12 mph93%29.68 "HgN/A
6:50 PM45 °FLight rain. Passing clouds.12 mph100%29.65 "Hg5 mi
6:20 PM45 °FLight rain. Passing clouds.12 mph100%29.65 "Hg6 mi
5:50 PM45 °FLight rain. Passing clouds.14 mph93%29.65 "HgN/A
5:20 PM43 °FLight rain. Passing clouds.13 mph100%29.62 "HgN/A
4:50 PM43 °FLight rain. Low clouds.16 mph100%29.62 "Hg5 mi
4:20 PM43 °FLight rain. Fog.17 mph100%29.59 "Hg3 mi
3:50 PM41 °FLight rain. Overcast.18 mph100%29.59 "Hg4 mi
3:20 PM41 °FLight rain. Fog.17 mph100%29.59 "Hg2 mi
2:50 PM39 °FLight rain. Overcast.18 mph100%29.56 "Hg3 mi
2:20 PM39 °FBroken clouds.15 mph93%29.56 "Hg4 mi
1:50 PM39 °FBroken clouds.12 mph87%29.56 "HgN/A
1:20 PM39 °FLight rain. Broken clouds.14 mph87%29.56 "Hg4 mi
12:50 PM37 °FLight rain. Broken clouds.16 mph93%29.59 "Hg3 mi
12:20 PM37 °FLight rain. Broken clouds.16 mph93%29.59 "Hg3 mi
11:50 AM37 °FLight rain. Broken clouds.12 mph93%29.62 "Hg3 mi
11:20 AM37 °FLight rain. Broken clouds.9 mph93%29.65 "Hg3 mi
10:50 AM37 °FLight rain. Partly sunny.9 mph93%29.65 "Hg4 mi
10:20 AM39 °FLight rain. Partly sunny.10 mph75%29.68 "Hg5 mi
9:50 AM39 °FLight rain. Overcast.15 mph75%29.68 "HgN/A
9:20 AM39 °FSunny.14 mph75%29.71 "Hg10 mi
8:50 AM37 °FSunny.14 mph75%29.74 "Hg10 mi
8:20 AM37 °FClear.15 mph75%29.74 "Hg10 mi
7:50 AM37 °FClear.12 mph75%29.77 "Hg10 mi
7:20 AM37 °FClear.14 mph81%29.77 "Hg10 mi
6:50 AM37 °FClear.12 mph81%29.80 "Hg10 mi
6:20 AM37 °FClear.12 mph81%29.80 "Hg10 mi
5:50 AM37 °FClear.12 mph81%29.83 "Hg10 mi
5:20 AM37 °FClear.13 mph81%29.83 "Hg10 mi
Weather by CustomWeather, © 2014

See weather overviewHow to use our weather pages